Regional Weather Roundup
Issued by NWS

Home | Current Version | Previous Version | Text Only | Print | Product List | Glossary Off
Versions: 1 2 3 4 5 6 7 8 9 10 11 12 13 14 15 16 17 18 19 20 21 22 23 24 25 26 27 28 29 30 31 32 33 34 35 36 37 38 39 40 41 42 43 44 45 46 47 48 49 50

000
ASUS43 KOAX 240010
RWRNE

WEATHER ROUNDUP FOR NEBRASKA
NATIONAL WEATHER SERVICE OMAHA NE
700 PM CDT THU OCT 23 2014

NOTES: SATELLITE DATA IS BEING USED TO AUGMENT CLOUD COVER ABOVE
       12000 FEET.
       "FAIR" INDICATES FEW OR NO CLOUDS BELOW 12,000 FEET WITH NO
       SIGNIFICANT WEATHER AND/OR OBSTRUCTIONS TO VISIBILITY.

  * THESE STATIONS DO NOT REPORT WEATHER SUCH AS RAIN...SNOW OR FOG.

NEZ001>004-019>022-054>056-240100-
NEBRASKA PANHANDLE

CITY           SKY/WX    TMP DP  RH WIND       PRES   REMARKS
SCOTTSBLUFF    CLEAR     63  33  32 SW7       29.99R
6HR MIN TEMP:  63; 6HR MAX TEMP:  77;

ALLIANCE       PTCLDY    62  31  31 SW7       29.97R
6HR MIN TEMP:  60; 6HR MAX TEMP:  73;

CHADRON        PTCLDY    63  38  39 W5        29.91R
6HR MIN TEMP:  63; 6HR MAX TEMP:  74;

KIMBALL        CLEAR     58  32  38 SW7       30.05R
SIDNEY         CLEAR     59  37  44 S10       30.04R
6HR MIN TEMP:  59; 6HR MAX TEMP:  74;

$$

NEZ057>060-069>072-079>082-240100-
SOUTHWEST NEBRASKA

CITY           SKY/WX    TMP DP  RH WIND       PRES   REMARKS
NORTH PLATTE   MOCLDY    65  44  46 S6        29.98R
6HR MIN TEMP:  64; 6HR MAX TEMP:  76;

IMPERIAL       CLEAR     70  37  29 S5        30.01S
6HR MIN TEMP:  70; 6HR MAX TEMP:  79; 6HR PCP: TRACE;

LEXINGTON      CLOUDY    62  56  81 SE7       30.00S
MCCOOK         MOCLDY    67  51  56 S7        30.01S
6HR MIN TEMP:  66; 6HR MAX TEMP:  75;

OGALLALA       CLEAR     67  38  34 CALM      29.99S
$$

NEZ005>010-023>029-035>040-094-240100-
NORTH CENTRAL NEBRASKA

CITY           SKY/WX    TMP DP  RH WIND       PRES   REMARKS
VALENTINE      CLOUDY    62  38  40 S8        29.90F
6HR MIN TEMP:  62; 6HR MAX TEMP:  75;

AINSWORTH      CLOUDY    58  43  57 S7        29.92S
BROKEN BOW     CLOUDY    63  51  65 S7        29.98S
6HR MIN TEMP:  63; 6HR MAX TEMP:  73;

O`NEILL        CLOUDY    62  49  61 S7        29.95S
ORD            CLOUDY    62  53  72 S9        29.97R
6HR MIN TEMP:  62; 6HR MAX TEMP:  73;

THEDFORD       MOCLDY    67  38  34 S6        29.95F
$$

NEZ041-046>049-061>064-073>077-083>087-240100-
SOUTH CENTRAL NEBRASKA

CITY           SKY/WX    TMP DP  RH WIND       PRES   REMARKS
GRAND ISLAND   CLOUDY    59  55  87 S6        30.02S
6HR MIN TEMP:  59; 6HR MAX TEMP:  65;

AURORA         MOCLDY    59  55  87 SW3       30.02S
HASTINGS       CLOUDY    57  54  89 S5        30.02S FOG
6HR MIN TEMP:  54; 6HR MAX TEMP:  63;

HEBRON         MOCLDY    62  55  76 CALM      30.03S
HOLDREGE       CLOUDY    56  54  91 CALM      30.02S
KEARNEY *      CLOUDY    54  52  94 SE7       30.03S
YORK           MOCLDY    59  55  88 SW3       30.02S
$$

NEZ011>018-030>034-042>045-240100-
NORTHEAST NEBRASKA

CITY           SKY/WX    TMP DP  RH WIND       PRES   REMARKS
NORFOLK        PTCLDY    60  50  69 S5        29.99R
6HR MIN TEMP:  58; 6HR MAX TEMP:  71;

ALBION         MOCLDY    58  51  76 SE5       30.00R
BLAIR          CLEAR     62  49  62 CALM      30.01S
COLUMBUS *     PTCLDY    63  48  59 SW6       30.02R
FREMONT        CLEAR     62  46  56 SE5       30.01S
TEKAMAH        CLEAR     60  50  69 S8        30.00R
6HR MIN TEMP:  60; 6HR MAX TEMP:  73;

WAYNE          CLEAR     57  46  65 SW6       29.99S
$$

NEZ050>053-065>068-078-088>093-240100-
SOUTHEAST NEBRASKA

CITY           SKY/WX    TMP DP  RH WIND       PRES   REMARKS
LINCOLN        PTCLDY    64  50  60 CALM      30.02S
6HR MIN TEMP:  63; 6HR MAX TEMP:  73;

OMAHA EPPLEY   PTCLDY    67  48  50 S5        30.01S
6HR MIN TEMP:  64; 6HR MAX TEMP:  73;

BEATRICE       CLEAR     65  50  58 S3        30.02R
FALLS CITY     CLEAR     67  52  58 S6        30.02R
6HR MIN TEMP:  67; 6HR MAX TEMP:  74;

NEBRASKA CITY  CLEAR     65  41  42 CALM      30.02S
PLATTSMOUTH    CLEAR     62  45  52 CALM      30.02S
$$

NEZ044-045-051>053-067-240100-
OMAHA AREA

CITY           SKY/WX    TMP DP  RH WIND       PRES   REMARKS
OMAHA EPPLEY   PTCLDY    67  48  50 S5        30.01S
6HR MIN TEMP:  64; 6HR MAX TEMP:  73;

BLAIR          CLEAR     62  49  62 CALM      30.01S
FREMONT        CLEAR     62  46  56 SE5       30.01S
MILLARD        CLEAR     59  54  82 CALM      30.01S
OFFUTT AFB     CLEAR     56  56  99 CALM      30.01R
PLATTSMOUTH    CLEAR     62  45  52 CALM      30.02S
WAHOO          FAIR      58  45  62 SE6       30.01S
$$



USA.gov is the U.S. government's official web portal to all federal, state and local government web resources and services.